Find Satmex 6

NORAD ID: 29162 Int'l Des: 2006-020 Owner: SAMX Country: MX operational
HEOCIRCULAR

Live-Position

3D-Globus wird geladen...

Über Satmex 6

Beschreibung wird geladen...

Nächste Überflüge

Passes for default location (London). Set your location on the main map for personalized predictions.

Höhenverlauf

Loading altitude history...

Zweizeiliger Elementsatz

1 29162U 06020A 26106.17683584 .00000072 00000-0 00000-0 0 9994
2 29162 2.2250 82.7278 0005151 307.1371 119.6767 0.98933882 72759
Epoch: 16. Apr. 2026 • Age: 14 hours

Aktueller Status

Höhe 36147.2 km
Geschwindigkeit 3.06 km/s
Subsatellitenpunkt -2.20°S, 121.29°W
Startdatum 27. Mai 2006
Alter 19.8 years
Typ other

Technische Details

Klassifizierung Payload
Masse 5456.00 kg
Trockenmasse 2310.00 kg
Gesamtmasse 5456.00 kg
Länge 7.40 m
Durchmesser 2.80 m
Spannweite 31.40 m
Form Box + 2 Pan
Hersteller LOR
Bus-Typ SSL-1300X
Phasenstatus Renamed
Besitzer/Staat SAMX/MX

Most Searched